Wind_Speed
26 23 22 21 22 23 25 23 21 20 21 21 21 21 21 19 20 20 19 19 18 18 17 17 17 17 17 18 18 18 18 18 18 17 17 18 18 17 17 17 17 17 15 15
30 27 23 23 22 22 22 23 22 21 20 21 21 21 20 20 21 22 21 21 20 19 18 18 18 18 18 19 19 19 19 19 18 18 18 19 18 17 17 17 17 17 16 16
29 26 25 24 23 23 22 23 23 23 22 20 21 21 22 22 21 22 22 22 21 20 19 19 19 19 19 19 19 19 19 19 19 19 19 18 19 18 18 18 18 17 17 17
28 26 26 26 24 23 23 23 24 25 25 24 23 22 23 23 22 21 22 21 21 20 20 20 20 20 20 20 20 20 20 20 20 19 19 19 19 18 17 17 17 18 18 17
29 26 24 23 24 24 25 26 24 24 24 23 23 23 23 24 22 22 23 22 22 22 21 21 21 22 21 21 21 21 21 20 20 20 20 20 20 18 18 18 17 18 18 18
31 28 25 25 25 25 24 27 26 25 26 25 24 24 23 22 22 23 24 24 24 23 23 22 22 22 21 22 22 22 22 21 21 21 21 20 20 19 20 20 19 19 18 18
32 29 28 27 23 24 26 27 28 27 27 27 26 25 24 24 24 24 25 25 25 24 24 23 23 22 22 23 23 23 22 22 21 21 21 21 21 21 21 21 21 20 20 20
33 31 30 30 28 27 27 28 29 29 28 28 27 26 26 26 26 25 26 26 25 25 25 25 24 24 24 24 24 23 22 22 23 23 23 23 22 21 21 22 22 22 22 22
34 35 34 31 30 29 28 29 30 30 30 29 29 28 28 27 27 26 26 25 25 26 25 26 26 25 25 25 25 25 25 24 24 24 24 24 23 22 22 22 22 22 23 23
35 36 36 32 29 29 29 30 30 29 29 30 30 30 29 28 28 28 27 26 25 25 25 25 26 26 25 25 25 25 26 25 25 25 24 24 24 24 24 24 24 24 24 24
36 35 35 35 33 30 30 30 30 30 29 29 29 30 29 28 28 28 27 26 25 25 25 25 25 25 26 26 26 26 26 26 25 25 24 24 24 25 25 25 25 25 25 26
36 35 34 34 34 33 32 32 32 31 31 31 30 30 29 29 29 28 28 27 26 25 26 26 26 26 26 26 26 27 27 26 26 26 25 25 26 26 25 25 25 25 25 26
36 36 36 35 35 34 33 33 34 34 33 32 31 31 30 30 30 30 29 28 28 27 27 27 27 27 27 27 27 27 27 26 26 26 26 27 27 27 26 26 26 25 25 25
36 36 36 35 35 35 35 35 35 35 34 34 33 33 32 31 31 31 30 29 29 29 28 28 28 28 28 28 28 28 27 27 27 27 27 27 28 28 26 26 25 25 25 25
36 35 35 35 35 35 35 35 35 35 34 34 34 33 32 32 31 30 30 30 30 29 29 29 29 29 29 29 29 29 28 28 27 27 27 27 26 26 25 25 24 24 24 25
34 34 35 35 35 36 36 35 35 35 35 34 34 33 32 32 31 31 30 30 30 30 30 29 29 30 30 30 30 30 29 28 28 27 26 25 25 25 24 25 25 25 25 25
33 34 35 34 34 35 34 34 34 35 35 34 33 32 31 31 31 31 30 30 30 30 30 30 30 31 30 30 30 29 28 27 27 26 24 24 24 24 25 25 25 26 26 26
32 32 33 33 34 33 34 34 33 34 34 33 31 31 30 30 30 30 30 31 30 30 29 30 30 29 29 28 28 28 28 28 27 26 24 24 24 25 25 25 25 25 26 25
31 31 32 32 32 33 33 32 31 32 33 33 32 31 30 30 30 30 30 28 27 28 28 28 27 27 26 27 27 27 28 27 27 26 26 25 25 25 25 25 25 25 25 25
28 29 30 30 29 30 31 32 31 31 30 30 30 30 31 31 29 28 28 27 26 25 25 25 25 26 26 27 27 27 27 26 26 26 25 25 25 25 25 25 25 24 25 25
28 29 29 29 29 27 28 29 29 29 29 28 28 29 29 29 28 27 27 27 26 26 25 25 25 25 25 25 26 26 25 25 25 25 26 26 26 26 26 26 25 25 25 25
26 27 28 28 28 29 28 28 28 28 28 27 27 27 27 27 27 26 26 26 26 25 25 24 24 25 25 25 25 26 25 25 25 25 25 26 26 26 26 26 26 26 25 26
25 24 25 26 26 27 27 26 26 27 27 27 26 25 25 24 25 24 24 25 24 23 23 23 23 24 25 25 24 23 23 23 24 25 25 26 26 26 26 26 26 26 26 27
23 23 23 24 24 25 25 25 25 25 25 25 25 24 24 23 23 23 23 23 22 23 22 22 22 23 23 24 23 23 23 23 24 24 24 25 25 25 26 26 26 26 27 27
23 22 22 22 23 24 24 24 25 24 24 24 24 24 23 23 22 22 22 21 21 21 22 22 23 23 23 23 24 23 23 23 23 23 24 24 24 24 25 25 26 26 27 27
21 22 22 22 22 23 23 23 23 23 24 24 23 22 22 22 22 22 22 22 21 21 21 21 22 22 23 23 23 23 23 24 24 24 24 24 24 24 25 25 26 26 26 25
20 20 20 20 21 22 22 21 21 21 22 22 21 21 22 22 21 22 22 21 21 21 21 21 21 21 21 22 22 22 23 23 24 24 24 24 24 25 25 25 25 25 25 25
Wind_Direction
207 208 217 224 225 223 223 224 229 238 244 248 250 252 256 260 263 263 264 266 268 271 276 282 287 288 290 293 297 299 301 303 300 299 302 303 301 302 303 305 306 306 307 307
213 212 212 216 219 222 224 225 229 235 242 248 254 256 257 260 263 264 265 266 267 269 274 278 281 284 288 292 295 298 301 301 300 299 301 300 296 298 302 302 302 302 303 305
215 217 214 217 216 218 221 222 225 232 235 245 254 259 260 262 265 265 263 264 266 268 271 275 278 281 286 291 293 297 300 300 300 300 301 300 295 295 298 299 299 298 300 301
217 218 222 221 218 218 222 224 227 233 239 242 251 255 259 262 263 262 262 263 265 268 269 272 275 279 283 286 291 295 297 299 299 301 303 303 302 296 295 298 298 297 297 299
216 222 220 222 220 220 223 227 229 232 238 241 248 254 256 259 262 263 263 265 267 268 269 272 274 278 282 285 288 292 295 296 298 300 301 301 301 298 297 298 300 299 299 300
214 218 220 222 220 220 225 231 231 236 240 242 246 251 254 257 261 265 265 265 266 267 269 272 274 276 279 284 287 289 290 292 294 297 300 301 300 298 297 296 298 299 299 301
216 220 223 222 222 223 226 231 233 236 241 244 248 251 257 260 261 263 265 265 266 266 268 271 272 273 278 282 287 287 288 291 293 295 297 299 297 295 294 293 294 297 298 299
218 219 226 223 219 222 227 232 236 238 241 246 249 252 255 258 261 263 265 263 264 266 266 269 272 276 279 281 285 286 287 292 292 293 294 294 294 292 292 292 293 294 295 297
220 223 227 228 227 228 231 234 238 242 244 248 251 253 257 258 260 262 266 265 266 265 266 268 271 275 278 281 284 286 288 290 292 292 291 292 293 290 290 291 293 293 294 295
223 226 227 231 231 232 232 237 240 243 245 248 252 255 257 258 259 262 263 266 266 265 266 269 271 275 278 280 281 283 286 289 292 293 293 291 289 289 290 291 292 291 291 293
226 229 230 233 234 235 237 239 241 243 245 248 251 254 257 260 261 261 264 265 265 264 266 269 271 273 276 279 281 283 286 289 291 294 293 292 290 290 291 290 290 291 290 291
227 230 232 232 234 235 238 240 242 244 247 250 252 254 256 258 259 259 260 262 262 264 266 267 270 273 275 278 281 283 286 288 289 291 290 290 291 292 291 291 290 290 290 290
231 232 236 236 237 237 240 243 245 247 249 250 251 253 255 256 257 258 259 258 263 265 266 267 269 271 273 276 280 283 285 287 288 290 291 292 292 291 288 288 288 289 290 290
233 235 239 241 241 240 241 244 247 248 248 250 251 253 254 255 256 257 257 259 262 263 265 266 266 269 272 275 278 281 284 287 288 289 289 290 291 290 287 287 288 289 290 292
235 237 239 241 241 240 241 244 247 248 249 251 252 253 253 255 255 257 257 258 260 262 265 266 266 268 271 274 277 280 282 285 288 288 288 288 288 287 288 290 291 291 292 293
236 237 238 239 241 242 243 245 246 247 249 251 252 253 252 253 254 255 257 258 259 261 264 266 267 268 270 274 277 279 280 283 285 285 286 287 287 288 290 292 293 294 294 295
238 239 240 241 242 243 242 244 245 245 248 250 251 252 252 252 253 255 256 258 260 261 263 265 267 269 271 274 276 276 278 280 283 285 285 286 287 289 291 292 292 293 295 296
239 241 241 242 242 241 243 244 244 245 246 247 249 250 250 251 253 255 256 257 258 261 263 264 267 269 270 272 275 276 277 279 281 283 284 286 287 289 289 290 292 293 295 297
239 240 240 242 243 243 242 242 241 242 243 246 248 249 250 251 253 254 257 258 258 260 262 263 264 266 268 272 274 275 277 279 280 281 283 284 285 287 289 291 292 293 295 297
239 240 240 242 243 243 241 241 242 241 244 246 246 248 249 250 253 254 256 257 258 261 261 262 265 267 270 272 274 275 278 278 278 279 279 281 283 286 288 290 291 293 295 297
240 240 242 241 240 240 240 242 242 242 244 246 246 247 249 250 252 254 256 257 257 258 260 263 266 268 270 272 273 274 276 276 276 277 278 280 282 285 287 288 289 292 294 296
240 241 240 238 240 240 240 242 244 245 242 243 245 246 248 249 251 254 257 257 257 259 260 263 265 267 270 272 273 274 274 275 276 278 280 282 282 283 285 287 289 291 293 295
237 239 238 236 237 238 237 239 243 243 242 243 246 248 250 252 252 254 258 258 259 259 260 264 267 268 269 271 272 274 275 277 278 280 282 283 282 283 285 287 289 291 292 293
235 236 237 237 236 237 236 238 240 241 243 244 246 249 250 252 254 256 258 259 261 263 264 265 269 270 271 271 272 272 273 274 278 281 284 286 287 287 287 288 290 292 293 294
234 235 236 237 237 236 236 238 240 242 244 245 248 250 250 253 254 255 257 259 260 263 266 268 270 270 271 273 273 274 274 275 277 280 283 285 288 290 290 291 293 294 295 295
234 234 236 236 237 237 239 241 241 241 242 245 246 246 248 251 253 256 259 261 262 266 268 268 268 269 270 271 272 274 276 276 276 279 282 284 287 289 292 294 294 294 295 296
233 232 234 236 236 237 239 240 240 240 241 242 244 246 248 250 254 258 260 262 265 268 270 270 267 267 269 271 272 274 276 277 278 280 283 285 288 290 292 294 296 296 296 296
Height
5862 5867 5871 5874 5877 5881 5884 5887 5890 5891 5891 5891 5892 5893 5894 5895 5896 5897 5898 5899 5899 5900 5900 5899 5899 5899 5898 5897 5897 5896 5894 5893 5891 5890 5889 5888 5887 5885 5884 5883 5882 5880 5879 5877
5857 5861 5865 5869 5872 5877 5880 5883 5885 5886 5887 5887 5887 5888 5890 5891 5892 5893 5893 5894 5895 5895 5896 5896 5895 5895 5894 5894 5893 5892 5891 5889 5888 5886 5885 5884 5883 5882 5881 5880 5879 5877 5876 5874
5852 5856 5860 5864 5868 5872 5875 5878 5880 5882 5883 5883 5883 5884 5885 5886 5887 5888 5888 5889 5890 5891 5891 5892 5892 5891 5891 5890 5889 5888 5887 5886 5884 5883 5881 5880 5878 5878 5877 5876 5875 5874 5872 5871
5847 5851 5854 5860 5863 5866 5870 5872 5874 5875 5877 5878 5879 5880 5881 5882 5883 5883 5884 5885 5885 5886 5887 5887 5887 5887 5886 5886 5885 5884 5883 5882 5880 5879 5878 5876 5875 5874 5873 5872 5871 5870 5868 5867
5842 5845 5848 5854 5857 5861 5864 5866 5869 5870 5871 5873 5874 5875 5875 5876 5876 5877 5879 5880 5881 5881 5882 5883 5882 5882 5882 5881 5880 5879 5878 5877 5876 5875 5874 5872 5871 5870 5869 5868 5867 5866 5864 5863
5836 5840 5844 5848 5851 5854 5858 5859 5862 5864 5865 5867 5869 5870 5871 5871 5872 5873 5874 5875 5876 5877 5877 5877 5877 5877 5877 5877 5876 5875 5874 5873 5872 5871 5870 5868 5867 5866 5865 5864 5863 5861 5860 5859
5829 5833 5837 5839 5844 5848 5852 5854 5856 5857 5859 5861 5863 5865 5865 5867 5868 5868 5869 5870 5871 5871 5872 5872 5872 5872 5872 5872 5870 5869 5869 5868 5867 5866 5865 5864 5863 5862 5861 5859 5858 5857 5856 5855
5823 5828 5831 5833 5837 5840 5843 5845 5848 5851 5853 5855 5857 5858 5860 5861 5862 5862 5862 5864 5865 5866 5866 5867 5866 5866 5867 5866 5865 5863 5863 5863 5863 5861 5860 5859 5858 5857 5856 5855 5853 5852 5851 5850
5816 5821 5823 5825 5829 5832 5835 5838 5841 5845 5847 5849 5851 5853 5854 5855 5855 5856 5857 5858 5859 5860 5861 5861 5861 5861 5862 5861 5860 5859 5858 5858 5857 5856 5855 5854 5852 5851 5850 5849 5848 5847 5845 5844
5809 5812 5816 5818 5821 5824 5827 5832 5835 5838 5841 5843 5845 5846 5848 5849 5849 5850 5851 5852 5852 5853 5854 5855 5855 5855 5855 5855 5855 5854 5853 5852 5851 5850 5849 5848 5846 5845 5844 5843 5842 5840 5839 5837
5800 5805 5809 5812 5815 5818 5822 5825 5828 5831 5834 5835 5838 5839 5841 5842 5843 5845 5845 5845 5846 5848 5849 5849 5849 5849 5849 5849 5849 5848 5847 5846 5845 5844 5843 5842 5840 5839 5838 5836 5835 5834 5832 5831
5793 5797 5802 5805 5809 5813 5816 5819 5821 5823 5826 5829 5831 5832 5834 5835 5836 5838 5839 5840 5840 5841 5842 5842 5843 5843 5843 5843 5843 5842 5841 5840 5839 5838 5837 5836 5834 5833 5831 5829 5829 5827 5825 5824
5786 5789 5793 5797 5801 5805 5809 5811 5814 5816 5819 5821 5823 5825 5827 5828 5829 5831 5832 5833 5834 5834 5835 5836 5836 5836 5837 5836 5836 5835 5835 5834 5833 5832 5830 5829 5827 5826 5825 5824 5822 5821 5819 5817
5779 5782 5786 5791 5794 5797 5801 5803 5805 5808 5811 5813 5815 5817 5819 5820 5822 5822 5824 5826 5827 5828 5829 5829 5829 5830 5830 5830 5829 5829 5828 5827 5826 5825 5823 5822 5820 5818 5816 5816 5815 5814 5812 5810
5771 5774 5779 5782 5786 5789 5792 5795 5797 5799 5802 5805 5807 5809 5811 5812 5814 5815 5816 5818 5819 5820 5821 5822 5822 5822 5823 5822 5822 5822 5821 5820 5819 5817 5816 5815 5814 5812 5810 5809 5808 5807 5805 5803
5763 5767 5770 5774 5777 5780 5783 5786 5788 5791 5793 5795 5798 5800 5802 5804 5806 5807 5809 5810 5811 5812 5813 5814 5814 5815 5815 5815 5814 5814 5813 5813 5812 5811 5810 5808 5807 5806 5805 5803 5802 5800 5798 5797
5755 5759 5762 5765 5768 5771 5774 5777 5779 5782 5784 5786 5789 5791 5793 5796 5798 5799 5800 5801 5803 5804 5805 5806 5806 5806 5806 5806 5806 5806 5806 5805 5804 5804 5803 5802 5800 5799 5798 5797 5795 5793 5792 5790
5748 5751 5754 5757 5760 5763 5765 5768 5771 5773 5776 5778 5780 5783 5786 5788 5789 5791 5792 5793 5794 5796 5797 5797 5798 5798 5798 5798 5798 5798 5797 5797 5797 5796 5795 5794 5794 5793 5791 5790 5789 5787 5785 5783
5740 5743 5746 5749 5751 5754 5756 5759 5761 5764 5767 5770 5773 5776 5778 5779 5780 5782 5783 5784 5786 5787 5788 5789 5790 5790 5790 5790 5790 5790 5789 5789 5788 5788 5787 5787 5786 5786 5784 5783 5782 5780 5778 5776
5733 5735 5738 5741 5743 5746 5748 5751 5754 5757 5760 5763 5765 5768 5770 5771 5772 5774 5776 5777 5778 5780 5780 5781 5782 5782 5782 5782 5782 5782 5781 5780 5780 5779 5779 5779 5779 5778 5777 5776 5775 5773 5771 5770
5726 5728 5731 5733 5736 5739 5741 5744 5747 5750 5753 5755 5758 5760 5762 5764 5766 5767 5769 5770 5771 5772 5773 5774 5774 5775 5774 5774 5774 5774 5773 5773 5772 5772 5772 5772 5771 5771 5770 5769 5768 5766 5765 5763
5719 5722 5724 5727 5729 5732 5735 5738 5741 5743 5746 5748 5751 5753 5755 5757 5759 5761 5762 5763 5764 5764 5765 5766 5767 5767 5767 5767 5767 5767 5766 5766 5765 5765 5765 5765 5764 5763 5762 5761 5760 5759 5757 5755
5713 5715 5717 5720 5723 5725 5729 5732 5734 5736 5739 5742 5744 5746 5748 5750 5752 5754 5755 5757 5757 5757 5758 5759 5760 5760 5760 5760 5760 5760 5759 5759 5759 5758 5758 5757 5757 5756 5755 5754 5753 5751 5750 5748
5707 5709 5712 5714 5717 5720 5723 5726 5728 5731 5733 5736 5738 5740 5742 5744 5745 5747 5748 5749 5750 5751 5751 5752 5752 5753 5752 5753 5753 5753 5753 5752 5752 5751 5751 5750 5749 5748 5747 5746 5745 5743 5742 5740
5702 5705 5707 5710 5712 5715 5718 5720 5723 5725 5728 5730 5732 5734 5736 5737 5739 5741 5742 5743 5744 5744 5745 5745 5745 5745 5745 5746 5746 5746 5746 5746 5745 5745 5744 5744 5743 5742 5740 5739 5737 5736 5734 5732
5697 5700 5702 5705 5707 5710 5712 5715 5717 5720 5722 5724 5726 5728 5730 5732 5733 5735 5736 5737 5737 5738 5738 5738 5738 5738 5739 5739 5739 5739 5739 5739 5739 5739 5738 5737 5736 5735 5733 5732 5730 5728 5726 5725
5693 5695 5698 5700 5702 5705 5707 5709 5711 5714 5716 5718 5721 5723 5724 5726 5727 5728 5729 5730 5731 5731 5732 5732 5732 5732 5732 5733 5733 5733 5733 5733 5732 5732 5731 5730 5729 5728 5726 5725 5723 5721 5719 5717